This is the latest recevied weather packets stored in our database for station/object 9M2MIN-1. If no packets are shown the sender has not sent any weather packets the latest 10 day(s).
| Time | Temp. | Humidity | Pressure | Rain* | Wind** | Luminosity | Snow |
|---|---|---|---|---|---|---|---|
| 1777714292 | 33.89° C | 69% | 1005.5 hPa | - | - | - | - |
| 1777713391 | 33.89° C | 68% | 1005.6 hPa | - | - | - | - |
| 1777712580 | 33.33° C | 69% | 1005.2 hPa | - | - | - | - |
| 1777712491 | 33.33° C | 69% | 1005.2 hPa | - | - | - | - |
| 1777711591 | 33.89° C | 67% | 1005.3 hPa | - | - | - | - |
| 1777710789 | 34.44° C | 66% | 1005.3 hPa | - | - | - | - |
| 1777710691 | 34.44° C | 66% | 1005.3 hPa | - | - | - | - |
| 1777709791 | 34.44° C | 65% | 1005.4 hPa | - | - | - | - |
| 1777708891 | 34.44° C | 64% | 1005.5 hPa | - | - | - | - |
| 1777707991 | 33.33° C | 67% | 1005.6 hPa | - | - | - | - |
| 1777707158 | 33.33° C | 68% | 1006 hPa | - | - | - | - |
| 1777707091 | 33.33° C | 68% | 1006 hPa | - | - | - | - |
| 1777706273 | 34.44° C | 65% | 1006.1 hPa | - | - | - | - |
| 1777706191 | 34.44° C | 65% | 1006.1 hPa | - | - | - | - |
| 1777705421 | 34.44° C | 66% | 1006.4 hPa | - | - | - | - |
| 1777705291 | 34.44° C | 66% | 1006.4 hPa | - | - | - | - |
| 1777704391 | 34.44° C | 63% | 1006.5 hPa | - | - | - | - |
| 1777703685 | 33.89° C | 66% | 1006.7 hPa | - | - | - | - |
| 1777703490 | 33.89° C | 66% | 1006.7 hPa | - | - | - | - |
| 1777702657 | 33.89° C | 67% | 1006.9 hPa | - | - | - | - |
| 1777702590 | 33.89° C | 67% | 1006.9 hPa | - | - | - | - |
| 1777701771 | 33.89° C | 66% | 1007.2 hPa | - | - | - | - |
| 1777701690 | 33.89° C | 66% | 1007.2 hPa | - | - | - | - |
| 1777700790 | 33.89° C | 66% | 1007.6 hPa | - | - | - | - |
| 1777700020 | 33.89° C | 66% | 1007.8 hPa | - | - | - | - |
* Rain since midnight (hover to see other rain measurements)
** Current wind speed in m/s (hover to see current wind gust speed)